Weather observations for the past three days for
Harry Clever Field Airport
Imperial (Metric)
Date Time (edt) Wind (mph) Vis. (mi.) Weather Sky Cond. Temperature (ºF) Relative Humidity Wind Chill (°F) Heat Index (°F) Pressure Precipitation (in)
Air Dwpt 6 hour altimeter (in) sea level (mb) 1 hr 3 hr 6 hr
Max. Min.
18 15:53 N 7 10.00 Overcast SCT047 BKN060 OVC075 79 59 50% 80 30.06 1017.4
18 14:53 NW 9 10.00 Partly Cloudy FEW055 SCT070 81 57.9 45% 81 30.06 1017.4
18 13:53 N 6 10.00 Partly Cloudy FEW049 SCT065 79 60.1 79 66.9 52% 80 30.07 1017.5
18 12:53 NE 9 10.00 Fair CLR 77 60.1 56% 79 30.08 1018.0
18 11:53 N 7 10.00 Fair CLR 73.9 59 60% 30.09 1018.2
18 10:53 N 7 10.00 Partly Cloudy SCT060 71.1 60.1 68% 30.08 1018.0
18 09:53 N 8 G 17 10.00 Mostly Cloudy FEW019 SCT043 BKN065 70 62.1 76% 30.07 1017.7
18 08:53 Vrbl 7 10.00 Mostly Cloudy BKN055 68 64 87% 30.05 1017.1
18 07:53 NE 5 10.00 Partly Cloudy SCT050 66.9 64 66.9 62.1 91% 30.03 1016.2
18 06:53 Calm 10.00 A Few Clouds FEW015 63 62.1 97% 30.01 1015.6
18 05:53 Calm 10.00 Fair CLR 63 62.1 97% 30 1015.2
18 03:53 Calm 10.00 Partly Cloudy SCT060 64.9 64 97% 29.95 1013.8
18 02:53 Calm 10.00 Fair CLR 66 66 100% 29.97 1014.1
18 01:53 Calm 10.00 A Few Clouds FEW060 FEW080 66.9 66.9 77 66 100% 29.96 1014.0
18 00:53 Calm 10.00 Overcast BKN060 OVC110 68 66.9 96% 29.96 1014.0
17 23:53 Calm 10.00 A Few Clouds FEW110 69.1 66.9 93% 29.96 1013.8
17 22:53 SE 3 10.00 Partly Cloudy SCT110 69.1 66.9 93% 29.94 1013.4
17 21:53 Calm 10.00 Mostly Cloudy BKN110 71.1 71.1 100% 29.94 1013.2
17 20:53 Calm 10.00 Mostly Cloudy BKN100 75.9 73 91% 76 29.92 1012.4
17 19:53 Calm 10.00 Partly Cloudy SCT080 77 73 82.9 71.1 88% 78 29.91 1012.0 0.06
17 18:53 Calm 10.00 Fair CLR 77 72 85% 78 29.89 1011.6
17 17:53 Calm 10.00 A Few Clouds FEW048 77 72 85% 78 29.88 1011.1
17 16:53 S 3 10.00 Partly Cloudy FEW015 SCT090 75 73 94% 73 29.89 1011.5 0.06
17 15:53 SW 5 10.00 Mostly Cloudy FEW080 BKN110 73.9 72 94% 29.89 1011.7 0.06
17 14:53 W 8 10.00 Overcast SCT029 BKN055 OVC120 81 73 77% 86 29.88 1011.2
17 13:53 Vrbl 6 10.00 Mostly Cloudy FEW023 BKN030 BKN041 82.9 72 84 73 70% 88 29.88 1011.1
17 12:53 S 8 10.00 Overcast SCT021 BKN029 OVC035 78.1 72 82% 80 29.9 1011.8
17 11:53 S 3 10.00 Overcast BKN018 BKN024 OVC031 77 72 85% 78 29.91 1012.1
17 10:53 S 5 10.00 Overcast BKN019 OVC027 75.9 71.1 85% 76 29.9 1011.7
17 09:53 SW 5 10.00 Partly Cloudy FEW032 SCT070 75 71.1 88% 75 29.9 1011.8
17 08:53 Vrbl 3 10.00 Mostly Cloudy BKN020 BKN065 75.9 71.1 85% 76 29.91 1011.9
17 07:53 Calm 10.00 Mostly Cloudy BKN021 73 70 75.9 72 90% 29.9 1011.8
17 06:53 Calm 10.00 Fair CLR 72 70 94% 29.89 1011.2
17 05:53 Calm 10.00 Fair CLR 73 70 90% 29.88 1011.0
17 04:53 SE 3 10.00 Fair CLR 73 70 90% 29.87 1010.4
17 03:53 S 3 10.00 Mostly Cloudy SCT050 BKN070 73.9 70 88% 29.87 1010.7
17 02:53 SW 3 10.00 Overcast BKN060 OVC080 75.9 70 82% 77 29.88 1010.9
17 01:53 Calm 10.00 Fair CLR 75 70 84.9 75 84% 75 29.88 1011.0
17 00:53 W 3 10.00 Fair CLR 77 70 79% 79 29.87 1010.5
16 23:53 SW 5 10.00 Mostly Cloudy BKN090 79 69.1 72% 82 29.87 1010.4
16 22:53 Calm 10.00 Mostly Cloudy BKN080 79 69.1 72% 82 29.87 1010.6
16 21:53 S 5 10.00 Fair CLR 80.1 68 67% 83 29.87 1010.6
16 20:53 S 3 10.00 Fair CLR 80.1 70 71% 83 29.87 1010.5
16 19:53 SW 5 10.00 A Few Clouds FEW055 84.9 69.1 91 84.9 59% 89 29.86 1010.3
16 18:53 Calm 10.00 Partly Cloudy SCT085 86 66.9 53% 89 29.86 1010.3
16 17:53 W 9 10.00 Overcast OVC080 87.1 66 50% 89 29.87 1010.6
16 16:53 W 8 G 18 10.00 Fair CLR 90 66.9 47% 93 29.86 1010.3
16 15:53 Vrbl 5 10.00 Partly Cloudy SCT060 89.1 68 50% 93 29.86 1010.4
16 14:53 SW 9 10.00 Partly Cloudy SCT050 SCT065 89.1 68 50% 93 29.87 1010.7
16 13:53 W 10 G 21 10.00 Partly Cloudy SCT048 87.1 68 88 77 53% 91 29.89 1011.2
16 12:53 Vrbl 5 10.00 Partly Cloudy SCT120 86 68 55% 89 29.88 1010.9
16 11:53 W 10 G 20 10.00 Fair CLR 84.9 66 53% 87 29.89 1011.4
16 10:53 W 9 G 23 10.00 Fair CLR 82.9 66.9 59% 86 29.88 1011.1
16 09:53 W 9 G 23 10.00 Fair CLR 82 66.9 60% 85 29.86 1010.3
16 08:53 W 13 G 29 10.00 Fair CLR 80.1 69.1 69% 83 29.84 1009.6
16 07:53 Vrbl 7 G 16 10.00 Fair CLR 77 71.1 77 70 82% 79 29.8 1008.3
16 06:53 E 3 10.00 Fair CLR 71.1 69.1 94% 29.79 1008.0
16 05:53 SE 7 10.00 Fair CLR 71.1 68 90% 29.8 1008.1
16 04:53 S 6 10.00 Partly Cloudy FEW080 SCT095 73.9 68 82% 29.82 1008.9
16 03:53 E 3 10.00 Overcast OVC075 71.1 68 90% 29.83 1009.2
16 02:53 SE 5 10.00 A Few Clouds FEW070 70 66.9 90% 29.85 1010.0
16 01:53 SE 5 10.00 Fair CLR 70 68 84.9 70 93% 29.87 1010.6
16 00:53 SE 5 10.00 Fair CLR 71.1 68 90% 29.87 1010.7
15 23:53 SE 6 10.00 Mostly Cloudy BKN049 73.9 69.1 85% 29.87 1010.6
15 22:53 SE 5 10.00 Fair CLR 75 70 84% 75 29.87 1010.5
15 21:53 Vrbl 3 10.00 A Few Clouds FEW049 78.1 69.1 74% 80 29.87 1010.7
15 20:53 SW 3 10.00 A Few Clouds FEW070 80.1 70 71% 83 29.86 1010.2
15 19:53 SW 9 G 18 10.00 A Few Clouds FEW070 84.9 69.1 91 82.9 59% 89 29.88 1011.0
15 18:53 W 3 10.00 Mostly Cloudy FEW055 BKN070 88 69.1 54% 92 29.87 1010.5
15 17:53 W 13 G 22 10.00 Partly Cloudy SCT060 SCT075 89.1 69.1 52% 94 29.88 1010.9
15 16:53 W 9 G 21 10.00 A Few Clouds FEW055 FEW075 90 68 48% 94 29.88 1011.1
Date Time (edt) Wind (mph) Vis. (mi.) Weather Sky Cond. Air Dwpt Max. Min. Relative Humidity Wind Chill (°F) Heat Index (°F) altimeter (in) sea level (mb) 1 hr 3 hr 6 hr
6 hour
Temperature (ºF) Pressure Precipitation (in)